GFSNIL_prec_kuchsnow_135.txt.gz
Snowfall_Accumulation
0.0 0.0 0.0 0.0 0.0 0.0 0.0 0.0 0.0 0.0 0.0 0.0 0.0 0.0 0.0 0.0 0.0 0.0 0.0 0.0 0.0 0.0
0.0 0.0 0.0 0.0 0.0 0.0 0.0 0.0 0.0 0.0 0.0 0.0 0.0 0.0 0.0 0.0 0.0 0.0 0.0 0.0 0.0 0.0
0.0 0.0 0.0 0.0 0.0 0.0 0.0 0.0 0.0 0.0 0.0 0.0 0.0 0.0 0.0 0.0 0.0 0.0 0.0 0.0 0.0 0.0
0.0 0.0 0.0 0.0 0.0 0.0 0.0 0.0 0.0 0.0 0.0 0.0 0.0 0.0 0.0 0.0 0.0 0.0 0.0 0.0 0.0 0.0
0.0 0.0 0.0 0.0 0.0 0.0 0.0 0.0 0.0 0.0 0.0 0.0 0.0 0.0 0.0 0.0 0.0 0.0 0.0 0.0 0.0 0.0
0.0 0.0 0.0 0.0 0.0 0.0 0.0 0.0 0.0 0.0 0.0 0.0 0.0 0.0 0.0 0.0 0.0 0.0 0.0 0.0 0.0 0.0
0.0 0.0 0.0 0.0 0.0 0.0 0.0 0.0 0.0 0.0 0.0 0.0 0.0 0.0 0.0 0.0 0.0 0.0 0.0 0.0 0.0 0.0
0.0 0.0 0.0 0.0 0.0 0.0 0.0 0.0 0.0 0.0 0.0 0.0 0.0 0.0 0.0 0.0 0.0 0.0 0.0 0.0 0.0 0.0
0.0 0.0 0.0 0.0 0.0 0.0 0.0 0.0 0.0 0.0 0.0 0.0 0.0 0.0 0.0 0.0 0.0 0.0 0.0 0.0 0.0 0.0
0.9 0.0 0.7 0.7 0.0 0.1 0.2 0.0 0.0 0.1 0.1 0.0 0.2 0.0 0.0 0.0 0.0 0.0 0.0 0.0 0.0 0.0
0.8 1.5 2.0 2.0 1.3 1.1 0.6 0.7 0.9 1.2 0.4 0.2 0.9 0.4 0.4 0.6 0.7 0.6 0.0 1.0 1.0 0.8
1.9 1.4 1.2 1.0 0.8 0.8 0.9 0.9 1.9 1.0 0.9 1.0 1.7 1.4 1.6 2.1 1.2 0.9 0.9 1.1 1.0 0.9
1.2 1.5 2.9 2.4 3.8 4.8 2.2 2.9 3.1 5.3 3.0 4.2 1.7 1.9 3.3 1.9 3.0 1.5 5.2 3.1 3.1 3.3
4.0 5.6 6.0 6.0 6.4 9.5 11.0 8.5 4.4 5.5 6.5 7.1 5.5 7.7 7.2 3.7 7.5 7.4 4.2 4.7 3.4 5.1

GFSNIL_prec_kuchsnow_138.txt.gz
Snowfall_Accumulation
0.0 0.0 0.0 0.0 0.0 0.0 0.0 0.0 0.0 0.0 0.0 0.0 0.0 0.0 0.0 0.0 0.0 0.0 0.0 0.0 0.0 0.0
0.0 0.0 0.0 0.0 0.0 0.0 0.0 0.0 0.0 0.0 0.0 0.0 0.0 0.0 0.0 0.0 0.0 0.0 0.0 0.0 0.0 0.0
0.0 0.0 0.0 0.0 0.0 0.0 0.0 0.0 0.0 0.0 0.0 0.0 0.0 0.0 0.0 0.0 0.0 0.0 0.1 0.1 0.1 0.0
0.0 0.0 0.0 0.0 0.0 0.0 0.0 0.0 0.0 0.0 0.0 0.0 0.0 0.0 0.0 0.0 0.0 0.0 0.4 0.1 0.2 0.1
0.0 0.0 0.0 0.0 0.0 0.0 0.0 0.0 0.0 0.0 0.0 0.0 0.0 0.0 0.0 0.0 0.0 0.0 0.0 0.0 0.0 0.0
0.0 0.0 0.0 0.0 0.0 0.0 0.0 0.0 0.0 0.0 0.0 0.0 0.0 0.0 0.0 0.0 0.0 0.0 0.0 0.0 0.0 0.0
0.0 0.0 0.0 0.0 0.0 0.0 0.0 0.0 0.0 0.0 0.0 0.0 0.0 0.0 0.0 0.0 0.0 0.0 0.0 0.0 0.0 0.0
0.0 0.0 0.0 0.0 0.0 0.0 0.0 0.0 0.0 0.0 0.0 0.0 0.0 0.0 0.0 0.0 0.0 0.0 0.0 0.0 0.0 0.0
0.0 0.0 0.0 0.0 0.0 0.0 0.0 0.0 0.0 0.0 0.0 0.0 0.0 0.0 0.0 0.0 0.0 0.0 0.0 0.0 0.0 0.0
0.9 0.0 0.7 0.7 0.0 0.1 0.2 0.0 0.0 0.1 0.1 0.0 0.2 0.0 0.0 0.0 0.0 0.0 0.0 0.0 0.0 0.0
0.8 1.5 2.0 2.0 1.3 1.1 0.6 0.7 0.9 1.2 0.4 0.2 0.9 0.4 0.4 0.6 0.7 0.6 0.0 1.0 1.0 0.8
1.9 1.4 1.2 1.0 0.8 0.8 0.9 0.9 1.9 1.0 0.9 1.0 1.7 1.4 1.6 2.1 1.2 0.9 0.9 1.1 1.0 0.9
1.2 1.5 2.9 2.4 3.8 4.8 2.2 2.9 3.1 5.3 3.0 4.2 1.7 1.9 3.3 1.9 3.0 1.5 5.2 3.1 3.1 3.3
4.0 5.6 6.0 6.0 6.4 9.5 11.0 8.5 4.4 5.5 6.5 7.1 5.5 7.7 7.2 3.7 7.5 7.4 4.2 4.7 3.4 5.1

GFSNIL_prec_kuchsnow_144.txt.gz
Snowfall_Accumulation
0.0 0.0 0.0 0.0 0.0 0.0 0.0 0.0 0.0 0.0 0.0 0.0 0.0 0.0 0.0 0.0 0.0 0.0 0.0 0.0 0.0 0.0
0.0 0.0 0.0 0.0 0.0 0.0 0.0 0.0 0.0 0.0 0.0 0.0 0.0 0.0 0.0 0.0 0.0 0.0 0.0 0.0 0.0 0.0
0.0 0.0 0.0 0.0 0.0 0.0 0.0 0.0 0.0 0.0 0.0 0.0 0.0 0.0 0.0 0.0 0.0 0.0 0.1 0.1 0.1 0.0
0.0 0.0 0.0 0.0 0.0 0.0 0.0 0.0 0.0 0.0 0.0 0.0 0.0 0.0 0.0 0.0 0.0 0.0 0.4 0.1 0.2 0.1
0.0 0.0 0.0 0.0 0.0 0.0 0.0 0.0 0.0 0.0 0.0 0.0 0.0 0.0 0.0 0.0 0.0 0.0 0.0 0.0 0.0 0.0
0.0 0.0 0.0 0.0 0.0 0.0 0.0 0.0 0.0 0.0 0.0 0.0 0.0 0.0 0.0 0.0 0.0 0.0 0.0 0.0 0.0 0.0
0.0 0.0 0.0 0.0 0.0 0.0 0.0 0.0 0.0 0.0 0.0 0.0 0.0 0.0 0.0 0.0 0.0 0.0 0.0 0.0 0.0 0.0
0.0 0.0 0.0 0.0 0.0 0.0 0.0 0.0 0.0 0.0 0.0 0.0 0.0 0.0 0.0 0.0 0.0 0.0 0.0 0.0 0.0 0.0
0.0 0.0 0.0 0.0 0.0 0.0 0.0 0.0 0.0 0.0 0.0 0.0 0.0 0.0 0.0 0.0 0.0 0.0 0.0 0.0 0.0 0.0
0.9 0.0 0.7 0.7 0.0 0.1 0.2 0.0 0.0 0.1 0.1 0.0 0.2 0.0 0.0 0.0 0.0 0.0 0.0 0.0 0.0 0.0
0.8 1.5 2.0 2.0 1.3 1.1 0.6 0.7 0.9 1.2 0.4 0.2 0.9 0.4 0.4 0.6 0.7 0.6 0.0 1.0 1.0 0.8
1.9 1.4 1.2 1.0 0.8 0.8 0.9 0.9 1.9 1.0 0.9 1.0 1.7 1.4 1.6 2.1 1.2 0.9 0.9 1.2 1.0 0.9
1.2 1.5 2.9 2.4 3.8 4.8 2.2 2.9 3.1 5.3 3.0 4.2 1.7 1.9 3.3 1.9 3.0 1.5 5.2 3.1 3.1 3.3
4.0 5.6 6.0 6.0 6.4 9.5 11.0 8.5 4.4 5.5 6.5 7.1 5.5 7.7 7.2 3.7 7.5 7.4 4.2 4.7 3.4 5.1

GFSNIL_prec_kuchsnow_150.txt.gz
Snowfall_Accumulation
0.0 0.0 0.0 0.0 0.0 0.0 0.0 0.0 0.0 0.0 0.0 0.0 0.0 0.0 0.0 0.0 0.0 0.0 0.0 0.0 0.0 0.0
0.0 0.0 0.0 0.0 0.0 0.0 0.0 0.0 0.0 0.0 0.0 0.0 0.0 0.0 0.0 0.0 0.0 0.0 0.0 0.0 0.0 0.0
0.0 0.0 0.0 0.0 0.0 0.0 0.0 0.0 0.0 0.0 0.0 0.0 0.0 0.0 0.0 0.0 0.0 0.0 0.1 0.1 0.1 0.0
0.0 0.0 0.0 0.0 0.0 0.0 0.0 0.0 0.0 0.0 0.0 0.0 0.0 0.0 0.0 0.0 0.0 0.0 0.4 0.1 0.2 0.1
0.0 0.0 0.0 0.0 0.0 0.0 0.0 0.0 0.0 0.0 0.0 0.0 0.0 0.0 0.0 0.0 0.0 0.0 0.0 0.0 0.0 0.0
0.0 0.0 0.0 0.0 0.0 0.0 0.0 0.0 0.0 0.0 0.0 0.0 0.0 0.0 0.0 0.0 0.0 0.0 0.0 0.0 0.0 0.0
0.0 0.0 0.0 0.0 0.0 0.0 0.0 0.0 0.0 0.0 0.0 0.0 0.0 0.0 0.0 0.0 0.0 0.0 0.0 0.0 0.0 0.0
0.0 0.0 0.0 0.0 0.0 0.0 0.0 0.0 0.0 0.0 0.0 0.0 0.0 0.0 0.0 0.0 0.0 0.0 0.0 0.0 0.0 0.0
0.0 0.0 0.0 0.0 0.0 0.0 0.0 0.0 0.0 0.0 0.0 0.0 0.0 0.0 0.0 0.0 0.0 0.0 0.0 0.0 0.0 0.0
0.9 0.0 0.7 0.7 0.0 0.1 0.2 0.0 0.0 0.1 0.1 0.0 0.2 0.0 0.0 0.0 0.0 0.0 0.0 0.0 0.0 0.0
1.1 1.8 2.3 2.2 1.3 1.1 0.6 0.7 0.9 1.2 0.4 0.2 0.9 0.4 0.4 0.6 0.7 0.6 0.0 1.0 1.0 0.8
2.9 2.1 1.4 1.1 0.8 0.8 0.9 0.9 1.9 1.0 0.9 1.0 1.7 1.4 1.6 2.1 1.2 0.9 0.9 1.2 1.0 0.9
1.9 1.9 3.0 2.4 3.8 4.8 2.2 2.9 3.1 5.3 3.0 4.2 1.7 1.9 3.3 1.9 3.0 1.5 5.2 3.1 3.1 3.3
4.8 6.0 6.1 6.0 6.4 9.5 11.0 8.5 4.4 5.5 6.5 7.1 5.5 7.7 7.2 3.7 7.5 7.4 4.2 4.7 3.4 5.1

GFSNIL_prec_kuchsnow_153.txt.gz
Snowfall_Accumulation
0.0 0.0 0.0 0.0 0.0 0.0 0.0 0.0 0.0 0.0 0.0 0.0 0.0 0.0 0.0 0.0 0.0 0.0 0.0 0.0 0.0 0.0
0.0 0.0 0.0 0.0 0.0 0.0 0.0 0.0 0.0 0.0 0.0 0.0 0.0 0.0 0.0 0.0 0.0 0.0 0.0 0.0 0.0 0.0
0.0 0.0 0.0 0.0 0.0 0.0 0.0 0.0 0.0 0.0 0.0 0.0 0.0 0.0 0.0 0.0 0.0 0.0 0.1 0.1 0.1 0.0
0.0 0.0 0.0 0.0 0.0 0.0 0.0 0.0 0.0 0.0 0.0 0.0 0.0 0.0 0.0 0.0 0.0 0.0 0.4 0.1 0.2 0.1
0.0 0.0 0.0 0.0 0.0 0.0 0.0 0.0 0.0 0.0 0.0 0.0 0.0 0.0 0.0 0.0 0.0 0.0 0.0 0.0 0.0 0.0
0.0 0.0 0.0 0.0 0.0 0.0 0.0 0.0 0.0 0.0 0.0 0.0 0.0 0.0 0.0 0.0 0.0 0.0 0.0 0.0 0.0 0.0
0.0 0.0 0.0 0.0 0.0 0.0 0.0 0.0 0.0 0.0 0.0 0.0 0.0 0.0 0.0 0.0 0.0 0.0 0.0 0.0 0.0 0.0
0.0 0.0 0.0 0.0 0.0 0.0 0.0 0.0 0.0 0.0 0.0 0.0 0.0 0.0 0.0 0.0 0.0 0.0 0.0 0.0 0.0 0.0
0.0 0.0 0.0 0.0 0.0 0.0 0.0 0.0 0.0 0.0 0.0 0.0 0.0 0.0 0.0 0.0 0.0 0.0 0.0 0.0 0.0 0.0
0.9 0.0 0.7 0.7 0.2 0.1 0.2 0.0 0.0 0.1 0.1 0.0 0.2 0.0 0.0 0.0 0.0 0.0 0.0 0.0 0.0 0.0
2.0 2.8 3.3 3.1 2.0 1.4 0.6 0.7 0.9 1.2 0.4 0.2 0.9 0.4 0.4 0.6 0.7 0.6 0.0 1.0 1.0 0.8
5.3 4.6 3.7 3.0 2.0 1.4 1.2 1.0 1.9 1.0 0.9 1.0 1.7 1.4 1.6 2.1 1.2 0.9 0.9 1.2 1.0 0.9
4.3 3.9 4.8 3.6 4.4 5.1 2.3 3.0 3.1 5.3 3.0 4.2 1.7 1.9 3.3 1.9 3.0 1.5 5.2 3.1 3.1 3.3
6.5 7.5 7.1 6.5 6.6 9.6 11.0 8.5 4.4 5.5 6.5 7.1 5.5 7.7 7.2 3.7 7.5 7.4 4.2 4.7 3.4 5.1

GFSNIL_prec_kuchsnow_156.txt.gz
Snowfall_Accumulation
0.0 0.0 0.0 0.0 0.0 0.0 0.0 0.0 0.0 0.0 0.0 0.0 0.0 0.0 0.0 0.0 0.0 0.0 0.0 0.0 0.0 0.0
0.0 0.0 0.0 0.0 0.0 0.0 0.0 0.0 0.0 0.0 0.0 0.0 0.0 0.0 0.0 0.0 0.0 0.0 0.0 0.0 0.0 0.0
0.0 0.0 0.0 0.0 0.0 0.0 0.0 0.0 0.0 0.0 0.0 0.0 0.0 0.0 0.0 0.0 0.0 0.0 0.1 0.1 0.1 0.0
0.0 0.0 0.0 0.0 0.0 0.0 0.0 0.0 0.0 0.0 0.0 0.0 0.0 0.0 0.0 0.0 0.0 0.0 0.4 0.1 0.2 0.1
0.0 0.0 0.0 0.0 0.0 0.0 0.0 0.0 0.0 0.0 0.0 0.0 0.0 0.0 0.0 0.0 0.0 0.0 0.0 0.0 0.0 0.0
0.0 0.0 0.0 0.0 0.0 0.0 0.0 0.0 0.0 0.0 0.0 0.0 0.0 0.0 0.0 0.0 0.0 0.0 0.0 0.0 0.0 0.0
0.0 0.0 0.0 0.0 0.0 0.0 0.0 0.0 0.0 0.0 0.0 0.0 0.0 0.0 0.0 0.0 0.0 0.0 0.0 0.0 0.0 0.0
0.0 0.0 0.0 0.0 0.0 0.0 0.0 0.0 0.0 0.0 0.0 0.0 0.0 0.0 0.0 0.0 0.0 0.0 0.0 0.0 0.0 0.0
0.0 0.0 0.0 0.0 0.0 0.0 0.0 0.0 0.0 0.0 0.0 0.0 0.1 0.1 0.0 0.0 0.0 0.0 0.0 0.0 0.0 0.0
0.9 0.0 0.7 0.7 0.2 0.3 0.4 0.2 0.3 0.2 0.3 0.2 0.3 0.0 0.0 0.0 0.0 0.0 0.0 0.0 0.0 0.0
2.4 3.4 3.8 3.8 3.1 2.5 1.5 1.4 1.5 1.5 0.6 0.3 0.9 0.4 0.4 0.6 0.7 0.6 0.0 1.0 1.0 0.8
6.6 6.3 5.7 5.2 4.1 3.1 2.6 2.4 2.8 1.3 1.0 1.0 1.7 1.4 1.6 2.1 1.2 0.9 0.9 1.2 1.0 0.9
6.9 6.9 8.0 6.0 6.4 6.8 3.9 4.1 3.5 5.5 3.0 4.2 1.7 1.9 3.3 1.9 3.0 1.5 5.2 3.1 3.1 3.3
9.4 10.5 9.7 8.6 8.1 10.9 12.0 9.0 4.7 5.7 6.5 7.1 5.5 7.7 7.2 3.7 7.5 7.4 4.2 4.7 3.4 5.1

GFSNIL_prec_kuchsnow_159.txt.gz
Snowfall_Accumulation
0.0 0.0 0.0 0.0 0.0 0.0 0.0 0.0 0.0 0.0 0.0 0.0 0.0 0.0 0.0 0.0 0.0 0.0 0.0 0.0 0.0 0.0
0.0 0.0 0.0 0.0 0.0 0.0 0.0 0.0 0.0 0.0 0.0 0.0 0.0 0.0 0.0 0.0 0.0 0.0 0.0 0.0 0.0 0.0
0.0 0.0 0.0 0.0 0.0 0.0 0.0 0.0 0.0 0.0 0.0 0.0 0.0 0.0 0.0 0.0 0.0 0.0 0.1 0.1 0.1 0.0
0.0 0.0 0.0 0.0 0.0 0.0 0.0 0.0 0.0 0.0 0.0 0.0 0.0 0.0 0.0 0.0 0.0 0.0 0.4 0.1 0.2 0.1
0.0 0.0 0.0 0.0 0.0 0.0 0.0 0.0 0.0 0.0 0.0 0.0 0.0 0.0 0.0 0.0 0.0 0.0 0.0 0.0 0.0 0.0
0.0 0.0 0.0 0.0 0.0 0.0 0.0 0.0 0.0 0.0 0.0 0.0 0.0 0.0 0.0 0.0 0.0 0.0 0.0 0.0 0.0 0.0
0.0 0.0 0.0 0.0 0.0 0.0 0.0 0.0 0.0 0.0 0.0 0.0 0.0 0.0 0.0 0.0 0.0 0.0 0.0 0.0 0.0 0.0
0.0 0.0 0.0 0.0 0.0 0.0 0.0 0.0 0.0 0.0 0.0 0.0 0.0 0.0 0.0 0.0 0.1 0.0 0.0 0.0 0.0 0.0
0.0 0.0 0.0 0.0 0.0 0.0 0.0 0.0 0.0 0.0 0.0 0.0 0.1 0.4 0.0 0.0 0.0 0.0 0.0 0.0 0.0 0.0
0.9 0.0 0.7 0.7 0.6 0.9 0.7 0.4 0.6 0.8 0.9 1.1 1.4 0.2 0.0 0.0 0.0 0.0 0.0 0.0 0.0 0.0
2.4 3.4 4.4 4.7 4.1 3.3 2.1 2.3 2.5 2.6 2.0 1.7 1.4 0.4 0.5 0.7 0.7 0.6 0.0 1.0 1.0 0.8
7.1 7.2 6.8 6.6 5.5 4.5 4.0 4.2 4.9 3.1 3.1 2.0 1.9 1.4 1.7 2.2 1.2 0.9 0.9 1.2 1.0 0.9
7.7 8.0 9.5 7.7 8.3 8.5 5.6 6.1 5.2 7.7 4.7 4.6 1.9 1.9 3.3 1.9 3.0 1.5 5.2 3.1 3.1 3.3
10.1 11.4 10.8 10.0 9.5 12.7 13.9 10.7 6.5 7.8 7.5 7.3 5.6 7.7 7.2 3.7 7.5 7.4 4.2 4.7 3.4 5.1

GFSNIL_prec_kuchsnow_162.txt.gz
Snowfall_Accumulation
0.0 0.0 0.0 0.0 0.0 0.0 0.0 0.0 0.0 0.0 0.0 0.0 0.0 0.0 0.0 0.0 0.0 0.0 0.0 0.0 0.0 0.0
0.0 0.0 0.0 0.0 0.0 0.0 0.0 0.0 0.0 0.0 0.0 0.0 0.0 0.0 0.0 0.0 0.0 0.0 0.0 0.0 0.0 0.0
0.0 0.0 0.0 0.0 0.0 0.0 0.0 0.0 0.0 0.0 0.0 0.0 0.0 0.0 0.0 0.0 0.0 0.0 0.1 0.1 0.1 0.0
0.0 0.0 0.0 0.0 0.0 0.0 0.0 0.0 0.0 0.0 0.0 0.0 0.0 0.0 0.0 0.0 0.0 0.0 0.4 0.1 0.2 0.1
0.0 0.0 0.0 0.0 0.0 0.0 0.0 0.0 0.0 0.0 0.0 0.0 0.0 0.0 0.0 0.0 0.0 0.0 0.0 0.0 0.0 0.0
0.0 0.0 0.0 0.0 0.0 0.0 0.0 0.0 0.0 0.0 0.0 0.0 0.0 0.0 0.0 0.0 0.0 0.0 0.0 0.0 0.0 0.0
0.0 0.0 0.0 0.0 0.0 0.0 0.0 0.0 0.0 0.0 0.0 0.0 0.0 0.0 0.0 0.0 0.0 0.0 0.0 0.2 0.2 0.0
0.0 0.0 0.0 0.0 0.0 0.0 0.0 0.0 0.0 0.0 0.0 0.0 0.0 0.0 0.0 0.0 0.1 0.2 0.4 0.2 0.0 0.0
0.0 0.0 0.0 0.0 0.0 0.0 0.0 0.0 0.0 0.2 0.0 0.0 0.1 0.4 0.0 0.2 0.3 0.4 0.0 0.1 0.0 0.0
0.9 0.0 0.7 0.7 0.6 0.9 0.7 0.4 1.2 1.5 1.5 1.8 2.0 0.5 0.3 0.3 0.3 0.4 0.3 0.0 0.0 0.0
2.4 3.4 4.4 4.7 4.6 4.0 2.9 3.0 3.4 3.8 3.3 2.9 2.3 1.0 0.8 1.1 1.1 0.8 0.2 1.0 1.0 0.8
7.1 7.2 6.8 7.5 6.7 5.8 5.3 5.6 5.9 4.5 4.9 3.6 2.8 1.8 1.9 2.4 1.4 1.2 1.1 1.2 1.0 0.9
7.7 8.0 9.5 7.7 9.1 9.5 6.6 7.0 6.3 9.2 6.4 5.6 2.6 2.4 3.7 2.2 3.2 1.7 5.2 3.1 3.1 3.3
10.1 11.4 10.8 10.2 9.8 13.1 14.5 11.6 7.9 9.4 8.9 8.3 6.4 8.8 7.8 3.8 7.5 7.4 4.2 4.7 3.4 5.1

GFSNIL_prec_kuchsnow_165.txt.gz
Snowfall_Accumulation
0.0 0.0 0.0 0.0 0.0 0.0 0.0 0.0 0.0 0.0 0.0 0.0 0.0 0.0 0.0 0.0 0.0 0.0 0.0 0.0 0.0 0.0
0.0 0.0 0.0 0.0 0.0 0.0 0.0 0.0 0.0 0.0 0.0 0.0 0.0 0.0 0.0 0.0 0.0 0.0 0.0 0.0 0.0 0.0
0.0 0.0 0.0 0.0 0.0 0.0 0.0 0.0 0.0 0.0 0.0 0.0 0.0 0.0 0.0 0.0 0.0 0.0 0.1 0.1 0.1 0.0
0.0 0.0 0.0 0.0 0.0 0.0 0.0 0.0 0.0 0.0 0.0 0.0 0.0 0.0 0.0 0.0 0.0 0.0 0.4 0.1 0.2 0.1
0.0 0.0 0.0 0.0 0.0 0.0 0.0 0.0 0.0 0.0 0.0 0.0 0.0 0.0 0.0 0.0 0.0 0.0 0.0 0.0 0.0 0.0
0.0 0.0 0.0 0.0 0.0 0.0 0.0 0.0 0.0 0.0 0.0 0.0 0.0 0.0 0.0 0.0 0.0 0.0 0.0 0.0 0.0 0.0
0.0 0.0 0.0 0.0 0.0 0.0 0.0 0.0 0.0 0.0 0.0 0.0 0.0 0.0 0.0 0.0 0.0 0.0 0.0 0.2 0.2 0.0
0.0 0.0 0.0 0.0 0.0 0.0 0.0 0.0 0.0 0.0 0.0 0.0 0.0 0.0 0.0 0.0 0.1 0.3 0.4 0.2 0.2 0.0
0.0 0.0 0.0 0.0 0.0 0.0 0.0 0.0 0.0 0.2 0.0 0.0 0.2 0.4 0.0 0.2 0.4 0.7 0.0 0.5 0.1 0.0
0.9 0.0 0.7 0.7 0.6 0.9 0.7 0.4 1.2 1.5 1.5 2.3 2.1 0.6 0.3 0.3 0.3 0.4 0.7 0.2 0.0 0.0
2.4 3.4 4.4 4.7 4.6 4.0 2.9 3.0 3.4 4.9 4.3 3.6 2.7 1.2 1.2 1.9 2.5 2.0 0.9 1.3 1.1 0.9
7.1 7.2 6.8 7.5 6.7 5.8 5.7 5.6 6.9 5.5 5.6 4.2 3.4 2.2 2.5 3.5 2.9 2.2 1.7 1.4 1.0 0.9
7.7 8.0 9.5 7.7 9.1 9.5 6.9 7.3 6.8 10.0 7.0 5.9 3.1 2.8 4.4 3.3 4.7 2.8 5.5 3.2 3.1 3.3
10.1 11.4 10.8 10.2 9.8 13.2 14.8 12.0 8.5 10.0 9.6 8.8 6.9 9.6 8.6 4.7 8.4 7.8 4.3 4.7 3.4 5.1

GFSNIL_prec_kuchsnow_168.txt.gz
Snowfall_Accumulation
0.0 0.0 0.0 0.0 0.0 0.0 0.0 0.0 0.0 0.0 0.0 0.0 0.0 0.0 0.0 0.0 0.0 0.0 0.0 0.0 0.0 0.0
0.0 0.0 0.0 0.0 0.0 0.0 0.0 0.0 0.0 0.0 0.0 0.0 0.0 0.0 0.0 0.0 0.0 0.0 0.0 0.0 0.0 0.0
0.0 0.0 0.0 0.0 0.0 0.0 0.0 0.0 0.0 0.0 0.0 0.0 0.0 0.0 0.0 0.0 0.0 0.0 0.1 0.1 0.1 0.0
0.0 0.0 0.0 0.0 0.0 0.0 0.0 0.0 0.0 0.0 0.0 0.0 0.0 0.0 0.0 0.0 0.0 0.0 0.4 0.1 0.2 0.1
0.0 0.0 0.0 0.0 0.0 0.0 0.0 0.0 0.0 0.0 0.0 0.0 0.0 0.0 0.0 0.0 0.0 0.0 0.0 0.0 0.0 0.0
0.0 0.0 0.0 0.0 0.0 0.0 0.0 0.0 0.0 0.0 0.0 0.0 0.0 0.0 0.0 0.0 0.0 0.0 0.0 0.0 0.0 0.0
0.0 0.0 0.0 0.0 0.0 0.0 0.0 0.0 0.0 0.0 0.0 0.0 0.0 0.0 0.0 0.0 0.0 0.0 0.0 0.2 0.2 0.0
0.0 0.0 0.0 0.0 0.0 0.0 0.0 0.0 0.0 0.0 0.0 0.0 0.0 0.0 0.0 0.0 0.1 0.3 0.4 0.2 0.2 0.0
0.0 0.0 0.0 0.0 0.0 0.0 0.0 0.0 0.0 0.2 0.0 0.0 0.2 0.4 0.0 0.2 0.5 0.7 0.0 0.5 0.1 0.0
0.9 0.0 0.7 0.7 0.6 0.9 0.7 0.4 1.2 1.5 1.5 2.3 2.1 1.0 0.5 0.3 0.3 0.4 0.8 0.2 0.0 0.0
2.4 3.4 4.4 4.7 4.6 4.0 2.9 3.0 3.4 4.9 4.3 4.1 3.4 1.5 1.4 1.9 2.6 2.4 1.7 2.4 2.0 1.5
7.1 7.2 6.8 7.5 6.7 5.8 5.7 5.6 6.9 5.5 5.6 4.5 3.7 2.3 2.5 3.8 3.4 3.0 2.6 2.2 1.7 1.3
7.7 8.0 9.5 7.7 9.1 9.5 6.9 7.3 6.8 10.3 7.3 5.9 3.3 2.8 4.6 3.9 5.5 3.6 6.4 3.7 3.3 3.3
10.1 11.4 10.8 10.2 9.8 13.2 14.8 12.1 8.7 10.2 9.6 8.8 6.9 10.0 9.1 5.3 9.2 8.6 5.0 5.0 3.4 5.2

GFSNIL_prec_kuchsnow_171.txt.gz
Snowfall_Accumulation
0.0 0.0 0.0 0.0 0.0 0.0 0.0 0.0 0.0 0.0 0.0 0.0 0.0 0.0 0.0 0.0 0.0 0.0 0.0 0.0 0.0 0.0
0.0 0.0 0.0 0.0 0.0 0.0 0.0 0.0 0.0 0.0 0.0 0.0 0.0 0.0 0.0 0.0 0.0 0.0 0.0 0.0 0.0 0.0
0.0 0.0 0.0 0.0 0.0 0.0 0.0 0.0 0.0 0.0 0.0 0.0 0.0 0.0 0.0 0.0 0.0 0.0 0.1 0.1 0.1 0.0
0.0 0.0 0.0 0.0 0.0 0.0 0.0 0.0 0.0 0.0 0.0 0.0 0.0 0.0 0.0 0.0 0.0 0.0 0.4 0.1 0.2 0.1
0.0 0.0 0.0 0.0 0.0 0.0 0.0 0.0 0.0 0.0 0.0 0.0 0.0 0.0 0.0 0.0 0.0 0.0 0.0 0.0 0.0 0.0
0.0 0.0 0.0 0.0 0.0 0.0 0.0 0.0 0.0 0.0 0.0 0.0 0.0 0.0 0.0 0.0 0.0 0.0 0.0 0.0 0.0 0.0
0.0 0.0 0.0 0.0 0.0 0.0 0.0 0.0 0.0 0.0 0.0 0.0 0.0 0.0 0.0 0.0 0.0 0.0 0.0 0.2 0.2 0.0
0.0 0.0 0.0 0.0 0.0 0.0 0.0 0.0 0.0 0.0 0.0 0.0 0.0 0.0 0.0 0.0 0.1 0.3 0.4 0.2 0.2 0.0
0.0 0.0 0.0 0.0 0.0 0.0 0.0 0.0 0.0 0.2 0.0 0.0 0.2 0.4 0.0 0.2 0.5 0.7 0.0 0.5 0.1 0.0
0.9 0.0 0.7 0.7 0.6 0.9 0.7 0.4 1.2 1.5 1.5 2.3 2.1 1.0 0.5 0.3 0.3 0.4 0.8 0.2 0.0 0.0
2.4 3.4 4.4 4.7 4.6 4.0 2.9 3.0 3.4 4.9 4.3 4.1 3.4 1.6 1.5 2.1 2.7 2.4 1.7 2.4 2.0 1.5
7.1 7.2 6.8 7.5 6.7 5.8 5.7 5.6 6.9 5.5 5.6 4.5 3.7 2.3 2.6 3.8 3.4 3.0 2.6 2.2 1.7 1.3
7.7 8.0 9.5 7.7 9.1 9.5 6.9 7.3 6.8 10.3 7.3 6.0 3.3 2.9 4.6 3.9 5.5 3.7 6.5 3.8 3.3 3.3
10.1 11.4 10.8 10.2 9.8 13.2 14.8 12.1 8.7 10.2 9.7 8.9 7.0 10.1 9.2 5.4 9.3 8.6 5.0 5.0 3.4 5.2

GFSNIL_prec_kuchsnow_174.txt.gz
Snowfall_Accumulation
0.0 0.0 0.0 0.0 0.0 0.0 0.0 0.0 0.0 0.0 0.0 0.0 0.0 0.0 0.0 0.0 0.0 0.0 0.0 0.0 0.0 0.0
0.0 0.0 0.0 0.0 0.0 0.0 0.0 0.0 0.0 0.0 0.0 0.0 0.0 0.0 0.0 0.0 0.0 0.0 0.0 0.0 0.0 0.0
0.0 0.0 0.0 0.0 0.0 0.0 0.0 0.0 0.0 0.0 0.0 0.0 0.0 0.0 0.0 0.0 0.0 0.0 0.1 0.1 0.1 0.0
0.0 0.0 0.0 0.0 0.0 0.0 0.0 0.0 0.0 0.0 0.0 0.0 0.0 0.0 0.0 0.0 0.0 0.0 0.4 0.1 0.2 0.1
0.0 0.0 0.0 0.0 0.0 0.0 0.0 0.0 0.0 0.0 0.0 0.0 0.0 0.0 0.0 0.0 0.0 0.0 0.0 0.0 0.0 0.0
0.0 0.0 0.0 0.0 0.0 0.0 0.0 0.0 0.0 0.0 0.0 0.0 0.0 0.0 0.0 0.0 0.0 0.0 0.0 0.0 0.0 0.0
0.0 0.0 0.0 0.0 0.0 0.0 0.0 0.0 0.0 0.0 0.0 0.0 0.0 0.0 0.0 0.0 0.0 0.0 0.0 0.2 0.2 0.0
0.0 0.0 0.0 0.0 0.0 0.0 0.0 0.0 0.0 0.0 0.0 0.0 0.0 0.0 0.0 0.0 0.1 0.3 0.4 0.2 0.2 0.0
0.0 0.0 0.0 0.0 0.0 0.0 0.0 0.0 0.0 0.2 0.0 0.0 0.2 0.4 0.0 0.2 0.5 0.7 0.0 0.5 0.1 0.0
0.9 0.0 0.7 0.7 0.6 0.9 0.7 0.4 1.2 1.5 1.5 2.3 2.1 1.0 0.5 0.3 0.3 0.4 0.8 0.2 0.0 0.0
2.4 3.4 4.4 4.7 4.6 4.0 2.9 3.0 3.4 4.9 4.3 4.1 3.4 1.6 1.5 2.1 2.7 2.4 1.7 2.4 2.0 1.5
7.1 7.2 6.8 7.5 6.7 5.8 5.7 5.6 6.9 5.5 5.6 4.5 3.7 2.3 2.6 3.8 3.4 3.0 2.6 2.2 1.7 1.3
7.7 8.0 9.5 7.7 9.1 9.5 6.9 7.3 6.8 10.3 7.3 6.0 3.3 2.9 4.6 3.9 5.5 3.8 6.5 3.8 3.3 3.3
10.1 11.4 10.8 10.2 9.8 13.2 14.8 12.1 8.7 10.2 9.7 8.9 7.0 10.1 9.2 5.4 9.4 8.7 5.0 5.0 3.4 5.2

GFSNIL_prec_kuchsnow_177.txt.gz
Snowfall_Accumulation
0.0 0.0 0.0 0.0 0.0 0.0 0.0 0.0 0.0 0.0 0.0 0.0 0.0 0.0 0.0 0.0 0.0 0.0 0.0 0.0 0.0 0.0
0.0 0.0 0.0 0.0 0.0 0.0 0.0 0.0 0.0 0.0 0.0 0.0 0.0 0.0 0.0 0.0 0.0 0.0 0.0 0.0 0.0 0.0
0.0 0.0 0.0 0.0 0.0 0.0 0.0 0.0 0.0 0.0 0.0 0.0 0.0 0.0 0.0 0.0 0.0 0.0 0.1 0.1 0.1 0.0
0.0 0.0 0.0 0.0 0.0 0.0 0.0 0.0 0.0 0.0 0.0 0.0 0.0 0.0 0.0 0.0 0.0 0.0 0.4 0.1 0.2 0.1
0.0 0.0 0.0 0.0 0.0 0.0 0.0 0.0 0.0 0.0 0.0 0.0 0.0 0.0 0.0 0.0 0.0 0.0 0.0 0.0 0.0 0.0
0.0 0.0 0.0 0.0 0.0 0.0 0.0 0.0 0.0 0.0 0.0 0.0 0.0 0.0 0.0 0.0 0.0 0.0 0.0 0.0 0.0 0.0
0.0 0.0 0.0 0.0 0.0 0.0 0.0 0.0 0.0 0.0 0.0 0.0 0.0 0.0 0.0 0.0 0.0 0.0 0.0 0.2 0.2 0.0
0.0 0.0 0.0 0.0 0.0 0.0 0.0 0.0 0.0 0.0 0.0 0.0 0.0 0.0 0.0 0.0 0.1 0.3 0.4 0.2 0.2 0.0
0.0 0.0 0.0 0.0 0.0 0.0 0.0 0.0 0.0 0.2 0.0 0.0 0.2 0.4 0.0 0.2 0.5 0.7 0.0 0.5 0.1 0.0
0.9 0.0 0.7 0.7 0.6 0.9 0.7 0.4 1.2 1.5 1.5 2.3 2.1 1.0 0.5 0.3 0.3 0.4 0.8 0.2 0.0 0.0
2.4 3.4 4.4 4.7 4.6 4.0 2.9 3.0 3.4 4.9 4.3 4.1 3.4 1.6 1.5 2.1 2.7 2.4 1.7 2.4 2.0 1.5
7.1 7.2 6.8 7.5 6.7 5.8 5.7 5.6 6.9 5.5 5.6 4.5 3.7 2.3 2.6 3.8 3.4 3.0 2.6 2.2 1.7 1.3
7.7 8.0 9.5 7.7 9.1 9.5 6.9 7.3 6.8 10.3 7.3 6.0 3.3 2.9 4.6 3.9 5.5 3.8 6.5 3.8 3.3 3.3
10.1 11.4 10.8 10.2 9.8 13.2 14.8 12.1 8.7 10.2 9.7 8.9 7.0 10.1 9.2 5.4 9.4 8.7 5.1 5.0 3.4 5.2

GFSNIL_prec_kuchsnow_180.txt.gz
Snowfall_Accumulation
0.0 0.0 0.0 0.0 0.0 0.0 0.0 0.0 0.0 0.0 0.0 0.0 0.0 0.0 0.0 0.0 0.0 0.0 0.0 0.0 0.0 0.0
0.0 0.0 0.0 0.0 0.0 0.0 0.0 0.0 0.0 0.0 0.0 0.0 0.0 0.0 0.0 0.0 0.0 0.0 0.0 0.0 0.0 0.0
0.0 0.0 0.0 0.0 0.0 0.0 0.0 0.0 0.0 0.0 0.0 0.0 0.0 0.0 0.0 0.0 0.0 0.0 0.1 0.1 0.1 0.0
0.0 0.0 0.0 0.0 0.0 0.0 0.0 0.0 0.0 0.0 0.0 0.0 0.0 0.0 0.0 0.0 0.0 0.0 0.4 0.1 0.2 0.1
0.0 0.0 0.0 0.0 0.0 0.0 0.0 0.0 0.0 0.0 0.0 0.0 0.0 0.0 0.0 0.0 0.0 0.0 0.0 0.0 0.0 0.0
0.0 0.0 0.0 0.0 0.0 0.0 0.0 0.0 0.0 0.0 0.0 0.0 0.0 0.0 0.0 0.0 0.0 0.0 0.0 0.0 0.0 0.0
0.0 0.0 0.0 0.0 0.0 0.0 0.0 0.0 0.0 0.0 0.0 0.0 0.0 0.0 0.0 0.0 0.0 0.0 0.0 0.2 0.2 0.0
0.0 0.0 0.0 0.0 0.0 0.0 0.0 0.0 0.0 0.0 0.0 0.0 0.0 0.0 0.0 0.0 0.1 0.3 0.4 0.2 0.2 0.0
0.0 0.0 0.0 0.0 0.0 0.0 0.0 0.0 0.0 0.2 0.0 0.0 0.2 0.4 0.0 0.2 0.5 0.7 0.0 0.5 0.1 0.0
0.9 0.0 0.7 0.7 0.6 0.9 0.7 0.4 1.2 1.5 1.5 2.3 2.1 1.0 0.5 0.3 0.3 0.4 0.8 0.2 0.0 0.0
2.4 3.4 4.4 4.7 4.6 4.0 2.9 3.0 3.4 4.9 4.3 4.1 3.4 1.6 1.5 2.1 2.7 2.4 1.7 2.4 2.0 1.5
7.1 7.2 6.8 7.5 6.7 5.8 5.7 5.6 6.9 5.5 5.6 4.5 3.7 2.3 2.6 3.8 3.4 3.0 2.6 2.2 1.8 1.3
7.7 8.0 9.5 7.7 9.1 9.5 6.9 7.3 6.8 10.3 7.3 6.0 3.3 2.9 4.6 3.9 5.5 3.8 6.5 3.8 3.3 3.3
10.1 11.4 10.8 10.2 9.8 13.2 14.8 12.1 8.7 10.2 9.7 8.9 7.0 10.1 9.2 5.4 9.4 8.7 5.1 5.0 3.4 5.2

GFSNIL_prec_kuchsnow_186.txt.gz
Snowfall_Accumulation
0.0 0.0 0.0 0.0 0.0 0.0 0.0 0.0 0.0 0.0 0.0 0.0 0.0 0.0 0.0 0.0 0.0 0.0 0.0 0.0 0.0 0.0
0.0 0.0 0.0 0.0 0.0 0.0 0.0 0.0 0.0 0.0 0.0 0.0 0.0 0.0 0.0 0.0 0.0 0.0 0.0 0.0 0.0 0.0
0.0 0.0 0.0 0.0 0.0 0.0 0.0 0.0 0.0 0.0 0.0 0.0 0.0 0.0 0.0 0.0 0.0 0.0 0.1 0.1 0.1 0.0
0.0 0.0 0.0 0.0 0.0 0.0 0.0 0.0 0.0 0.0 0.0 0.0 0.0 0.0 0.0 0.0 0.0 0.0 0.4 0.1 0.2 0.1
0.0 0.0 0.0 0.0 0.0 0.0 0.0 0.0 0.0 0.0 0.0 0.0 0.0 0.0 0.0 0.0 0.0 0.0 0.0 0.0 0.0 0.0
0.0 0.0 0.0 0.0 0.0 0.0 0.0 0.0 0.0 0.0 0.0 0.0 0.0 0.0 0.0 0.0 0.0 0.0 0.0 0.0 0.0 0.0
0.0 0.0 0.0 0.0 0.0 0.0 0.0 0.0 0.0 0.0 0.0 0.0 0.0 0.0 0.0 0.0 0.0 0.0 0.0 0.2 0.2 0.0
0.0 0.0 0.0 0.0 0.0 0.0 0.0 0.0 0.0 0.0 0.0 0.0 0.0 0.0 0.0 0.0 0.1 0.3 0.4 0.2 0.2 0.0
0.0 0.0 0.0 0.0 0.0 0.0 0.0 0.0 0.0 0.2 0.0 0.0 0.2 0.4 0.0 0.2 0.5 0.7 0.0 0.5 0.1 0.0
0.9 0.0 0.7 0.7 0.6 0.9 0.7 0.4 1.2 1.5 1.5 2.3 2.1 1.0 0.5 0.3 0.3 0.4 0.8 0.2 0.0 0.0
2.4 3.4 4.4 4.7 4.6 4.0 2.9 3.0 3.4 4.9 4.3 4.1 3.4 1.6 1.5 2.1 2.7 2.4 1.7 2.4 2.0 1.5
7.1 7.2 6.8 7.5 6.7 5.8 5.7 5.6 6.9 5.5 5.6 4.5 3.7 2.3 2.6 3.8 3.4 3.0 2.6 2.2 1.8 1.4
7.7 8.0 9.5 7.7 9.1 9.5 6.9 7.3 6.8 10.3 7.3 6.0 3.3 2.9 4.6 3.9 5.5 3.8 6.5 3.8 3.3 3.3
10.1 11.4 10.8 10.2 9.8 13.2 14.8 12.1 8.7 10.2 9.7 8.9 7.0 10.1 9.2 5.4 9.4 8.7 5.1 5.0 3.4 5.2